Kodiak, AK

5:47 AM AKDT on October 20, 2017 (GMT -0800)
Kodiak

Weather History for PADQ - August, 2013

Change the Weather History Date:

Thursday, August 22, 2013

  Actual Average Record
Temperature  
Mean Temperature 56 °F 55 °F  
Max Temperature 58 °F 61 °F 78 °F (1948)
Min Temperature 53 °F 49 °F 39 °F (1969)
Degree Days  
Heating Degree Days 9 10  
Month to date heating degree days 207 206  
Since 1 June heating degree days 749 994  
Since 1 July heating degree days 418 533  
Cooling Degree Days 0 0  
Month to date cooling degree days 0 0  
Year to date cooling degree days 6 1  
Since 1 June cooling degree days 6 1  
Growing Degree Days 6 (Base 50)    
Moisture  
Dew Point 54 °F    
Average Humidity 0    
Maximum Humidity 0    
Minimum Humidity 0    
Precipitation  
Precipitation 0.01 in 0.14 in 1.76 in (1964)
Month to date precipitation 6.71 3.08  
Year to date precipitation 37.32 45.31  
Snow  
Snow 0.00 in 0.00 in - ()
Month to date snowfall 0.0 0.0  
Since 1 June snowfall 0.0 0.0  
Since 1 July snowfall 0.0 0.0  
Snow Depth 0.00 in    
Sea Level Pressure  
Sea Level Pressure 29.76 in    
Wind  
Wind Speed 2 mph (ENE)    
Max Wind Speed 8 mph    
Max Gust Speed 9 mph    
Visibility 8 miles    
Events Rain    
T = Trace of Precipitation, MM = Missing Value Source: NWS Daily Summary

Daily Weather History Graph

Daily Weather History Graph

Search for Another Location

Airport or City:

Trip Planner

Search our weather history database for the weather conditions in past years. The results will help you decide how hot, cold, wet, or windy it might be!

Date:

Astronomy

Aug. 22, 2013 Rise Set
Actual Time 6:50 AM AKDT 9:33 PM AKDT
Civil Twilight 6:06 AM AKDT 10:17 PM AKDT
Nautical Twilight 5:07 AM AKDT 11:15 PM AKDT
Astronomical Twilight 3:46 AM AKDT 12:33 AM AKDT
Moon 9:38 PM AKDT (8/22) 9:29 AM AKDT (8/22)
Length of Visible Light 16h 11m
Length of Day
14h 43m
Waning Gibbous, 96% of the Moon is Illuminated
Aug 22
Waning Gibbous
Aug 28
Last Quarter
Sep 5
New
Sep 12
First Quarter
Sep 19
Full

Hourly Weather History & Observations

Time (AKDT) Temp. Dew Point Humidity Pressure Visibility Wind Dir Wind Speed Gust Speed Precip Events Conditions
12:53 AM 55.9 °F 54.0 °F 93% 29.79 in 7.0 mi Calm Calm - 0.05 in Rain Light Rain
1:53 AM 55.0 °F 52.0 °F 89% 29.78 in 9.0 mi Calm Calm - 0.00 in Rain Light Rain
2:53 AM 55.9 °F 53.1 °F 90% 29.77 in 9.0 mi Calm Calm - 0.00 in   Overcast
3:23 AM 55.4 °F 53.6 °F 94% 29.76 in 9.0 mi Calm Calm - N/A   Overcast
3:53 AM 55.9 °F 53.1 °F 90% 29.76 in 9.0 mi Calm Calm - N/A   Overcast
4:53 AM 55.9 °F 54.0 °F 93% 29.76 in 8.0 mi Calm Calm - N/A   Overcast
5:05 AM 55.4 °F 53.6 °F 94% 29.76 in 8.0 mi Calm Calm - N/A   Overcast
5:49 AM 55.4 °F 53.6 °F 94% 29.75 in 10.0 mi Calm Calm - N/A   Overcast
5:53 AM 55.9 °F 53.1 °F 90% 29.75 in 10.0 mi Calm Calm - N/A   Overcast
6:20 AM 55.4 °F 53.6 °F 94% 29.75 in 4.0 mi NE 3.5 mph - N/A   Overcast
6:53 AM 55.9 °F 53.1 °F 90% 29.76 in 6.0 mi Calm Calm - N/A   Overcast
7:42 AM 55.4 °F 53.6 °F 94% 29.76 in 10.0 mi Calm Calm - N/A   Overcast
7:53 AM 55.9 °F 53.1 °F 90% 29.76 in 10.0 mi West 4.6 mph - N/A   Overcast
8:53 AM 57.0 °F 54.0 °F 89% 29.76 in 9.0 mi Calm Calm - N/A   Overcast
9:53 AM 57.0 °F 54.0 °F 89% 29.76 in 10.0 mi WNW 3.5 mph - N/A   Overcast
10:53 AM 57.9 °F 54.0 °F 87% 29.77 in 10.0 mi South 3.5 mph - N/A   Overcast
11:53 AM 55.9 °F 54.0 °F 93% 29.77 in 7.0 mi NE 3.5 mph - N/A   Overcast
12:53 PM 57.0 °F 54.0 °F 89% 29.77 in 7.0 mi Calm Calm - N/A   Overcast
1:53 PM 57.9 °F 55.0 °F 90% 29.76 in 5.0 mi ENE 4.6 mph - N/A   Overcast
2:51 PM 57.2 °F 55.4 °F 94% 29.76 in 4.0 mi East 3.5 mph - 0.00 in Rain Light Rain
2:53 PM 57.0 °F 55.0 °F 93% 29.77 in 4.0 mi East 3.5 mph - 0.00 in Rain Light Rain
3:53 PM 55.9 °F 53.1 °F 90% 29.76 in 3.0 mi SE 5.8 mph - 0.01 in   Overcast
4:51 PM 55.4 °F 53.6 °F 94% 29.77 in 6.0 mi NE 3.5 mph - N/A   Overcast
4:53 PM 55.9 °F 53.1 °F 90% 29.77 in 6.0 mi NNE 3.5 mph - N/A   Overcast
5:53 PM 57.0 °F 53.1 °F 87% 29.77 in 10.0 mi Calm Calm - N/A   Overcast
6:53 PM 57.9 °F 54.0 °F 87% 29.77 in 10.0 mi NE 3.5 mph - N/A   Overcast
7:00 PM 57.2 °F 53.6 °F 88% 29.76 in 10.0 mi NE 3.5 mph - N/A   Mostly Cloudy
7:53 PM 57.9 °F 54.0 °F 87% 29.76 in 10.0 mi NE 3.5 mph - N/A   Mostly Cloudy
8:53 PM 57.0 °F 54.0 °F 89% 29.76 in 10.0 mi Calm Calm - N/A   Mostly Cloudy
9:53 PM 55.9 °F 53.1 °F 90% 29.77 in 10.0 mi Calm Calm - N/A   Overcast
10:04 PM 55.4 °F 53.6 °F 94% 29.77 in 10.0 mi Calm Calm - N/A   Overcast
10:53 PM 57.0 °F 54.0 °F 89% 29.77 in 10.0 mi Calm Calm - N/A   Overcast
11:53 PM 55.9 °F 53.1 °F 90% 29.77 in 9.0 mi Calm Calm - N/A   Overcast